sat.trackr.live / text

‹ back to catalog

STARLINK-36098

NORAD 66816 · 2025-278AB

PAYLOAD ACTIVE UNKNOWN

§ Identity

Operator
Country
US
Launch date
2025-12-01
Launch site
AFETR
Launch vehicle
Mass (kg)
RCS (m²)

Purposes: comms

External: N2YO · Heavens-Above · Gunter

§ Orbital elements

Epoch: 2026-05-25T03:00:53.898048Z

Period
94.26 min
Inclination
43.0024°
Eccentricity
0.0001990
Mean motion
15.27627271 rev/d
Perigee alt
481.5 km
Apogee alt
484.3 km
Semi-major
6,861.0 km
B*
1.8002e-3
RAAN
42.2894°
Arg perigee
298.0802°
Mean anomaly
61.9848°
Rev number
2,690

§ Raw data

STARLINK-360981 66816U 25278AB  26145.12562382  .00049683  00000+0  18002-2 0  99902 66816  43.0024  42.2894 0001990 298.0802  61.9848 15.27627271 26902

JSON: /api/v1/satellites/66816 · /tle

For live sub-satellite position, see the globe view (requires WebGL).

§ Visibility from observer

Set your observer location to see the next 7 days of passes ≥ 10°. The values pass through the URL so the page stays shareable.

No JS? Fill the form by hand. The geolocation button needs JavaScript.